Wind_Speed
7 9 9 10 14 14 14 15 15 14 13 14 16 15 15 16 17 18 19 21 25 27 25 22 21 20 21 23 14 14 25 21 19 23 28 27 26 24 24 20 17 18 16
8 10 11 10 13 16 12 14 14 15 15 16 17 17 17 16 16 20 20 21 22 23 24 23 21 19 16 19 17 17 17 14 24 23 19 24 26 24 20 19 20 18 15
8 12 13 13 12 16 13 12 14 17 17 18 19 17 17 17 19 20 20 21 20 19 21 20 21 17 20 12 19 23 19 13 23 23 23 27 24 21 20 19 16 12 12
9 9 10 11 12 16 15 10 11 14 16 18 18 17 17 17 17 17 18 18 20 20 17 19 21 19 13 17 16 17 18 16 21 21 25 26 26 25 17 13 14 13 13
7 9 9 10 12 14 13 12 16 16 16 20 15 16 17 15 16 17 17 14 16 18 19 17 17 16 16 14 15 19 15 18 21 27 26 25 21 18 16 16 14 14 12
7 9 10 8 10 15 16 21 20 19 20 20 17 21 18 13 13 15 13 14 14 15 18 14 19 20 12 17 21 24 24 29 26 24 19 18 18 18 15 13 13 11 11
6 8 9 9 12 16 17 17 15 14 17 19 20 19 19 12 12 16 18 21 26 18 20 21 24 32 28 28 29 28 26 21 16 18 18 17 14 13 11 9 9 10 13
8 10 12 13 14 17 19 20 21 25 23 21 19 20 19 18 18 17 18 16 23 23 19 22 27 27 26 26 26 23 21 20 19 16 14 11 10 8 6 9 12 17 19
7 10 13 14 13 13 14 17 19 21 22 24 24 24 23 23 22 23 22 19 21 20 22 24 23 23 21 19 18 17 16 14 11 9 8 6 6 8 11 14 16 21 24
6 8 11 12 13 13 13 15 17 18 19 19 20 21 19 19 19 21 24 21 21 20 20 18 19 16 17 16 14 12 9 6 5 3 4 6 9 11 15 18 20 24 27
6 7 10 10 12 13 13 14 14 14 16 17 18 17 17 15 16 16 18 17 17 16 16 15 14 12 10 8 5 4 4 5 5 7 10 11 13 14 18 21 24 28 30
8 8 8 8 10 12 12 10 11 11 11 14 16 16 15 14 13 12 12 11 10 10 9 8 7 6 5 4 3 4 6 7 9 12 13 14 16 19 24 28 29 32 34
12 10 9 9 8 8 10 11 11 13 15 15 15 15 15 15 14 15 14 12 10 8 7 6 4 3 4 5 8 10 10 10 12 15 17 19 21 25 28 29 30 34 37
13 13 12 11 10 10 9 10 12 12 12 12 13 13 13 12 11 10 9 8 6 4 2 1 1 3 6 8 11 12 13 15 18 21 22 22 23 26 28 31 35 38 41
12 14 14 13 13 12 11 11 12 12 11 9 10 9 7 6 5 4 2 1 2 3 4 6 7 9 10 12 13 13 17 20 22 23 23 23 25 27 30 34 37 40 43
14 13 15 16 15 14 13 13 13 13 12 10 6 3 1 3 5 6 6 6 7 8 10 11 11 12 13 13 15 19 22 22 23 24 22 25 29 31 33 36 39 43 45
19 16 15 18 19 17 17 16 16 15 14 12 11 9 10 11 11 11 11 11 12 13 15 16 16 17 17 18 22 23 24 24 23 23 26 29 31 33 36 39 40 46 46
20 20 20 20 19 21 21 21 20 18 18 17 17 17 18 17 14 13 12 12 14 16 18 19 19 18 19 22 26 26 25 24 25 27 29 31 32 35 37 41 44 45 45
21 21 22 22 21 20 20 20 20 20 21 21 20 18 18 18 18 19 18 15 15 18 18 19 19 19 23 27 27 27 25 26 28 29 31 33 34 37 37 43 45 45 49
21 21 22 23 24 21 20 20 19 19 19 19 18 19 20 20 21 23 21 21 20 19 21 22 22 22 26 30 31 30 30 31 32 32 31 33 34 37 41 42 43 50 49
21 23 24 24 24 26 26 26 26 21 20 19 19 18 20 22 23 24 25 23 27 26 24 25 28 26 33 35 36 36 37 35 32 32 30 34 37 42 41 39 44 47 42
22 23 25 29 28 28 30 32 31 29 26 24 23 23 25 26 28 29 29 25 28 29 31 32 31 28 30 41 45 43 40 39 38 35 35 35 39 44 40 40 45 45 43
23 23 23 26 29 27 24 27 31 33 33 30 29 30 32 33 35 30 34 31 33 36 32 31 30 32 34 35 35 35 34 35 39 41 37 38 36 39 40 46 46 40 43
23 22 23 23 25 27 28 30 30 30 32 34 36 36 35 36 39 38 35 37 37 37 28 30 35 32 30 26 31 31 41 45 46 47 46 35 38 38 41 47 41 44 40
28 27 25 24 22 22 25 27 29 29 29 31 33 32 31 32 32 30 32 36 35 36 36 35 36 37 38 37 33 36 40 41 47 46 38 37 42 42 44 40 42 41 39
33 35 35 33 32 32 32 31 31 31 32 32 32 32 30 30 30 29 29 30 31 33 34 35 36 37 41 43 42 45 48 51 51 41 38 37 39 42 39 40 40 38 38
Wind_Direction
10 24 29 30 21 35 54 49 67 71 89 126 134 128 130 136 143 149 153 147 148 152 159 165 168 169 175 172 181 164 168 186 179 163 170 174 183 183 188 188 188 183 188
36 58 45 43 41 35 75 67 67 73 93 127 129 122 124 131 145 159 151 159 159 157 163 173 178 177 174 179 187 181 195 169 178 167 170 182 174 176 179 184 182 179 190
55 67 55 54 48 43 72 68 69 82 99 111 122 122 123 126 128 141 153 156 157 161 163 171 169 170 175 175 183 213 174 181 170 172 177 159 164 176 179 179 175 183 199
44 64 62 59 48 40 51 87 88 81 91 100 113 123 127 130 133 139 141 147 153 157 165 176 181 182 187 190 194 188 180 172 181 180 170 176 172 165 166 167 190 197 213
44 56 75 57 54 51 58 98 101 86 98 86 115 116 122 113 124 141 144 148 172 178 179 161 181 194 181 183 194 187 185 172 165 164 162 156 151 157 178 196 204 217 235
49 71 74 58 66 71 72 96 96 90 86 100 107 91 112 120 128 118 118 124 140 160 184 153 165 180 188 180 180 188 179 163 159 159 148 156 167 177 188 200 218 235 253
57 75 74 76 87 87 85 96 99 101 99 92 117 110 94 106 101 119 104 103 132 128 126 128 140 144 141 145 149 153 155 152 144 141 166 170 172 181 200 227 251 274 283
66 79 90 98 91 93 92 89 90 92 98 98 95 101 108 99 83 129 105 111 124 127 133 134 128 138 137 135 139 140 142 148 160 163 165 179 189 209 240 268 282 284 295
89 91 105 116 110 98 92 91 93 94 95 98 96 93 94 90 86 93 96 109 114 130 145 130 126 127 133 135 134 137 147 149 160 170 181 198 227 247 263 277 290 298 299
121 110 109 119 115 115 108 100 97 99 99 99 99 101 99 99 100 101 97 98 104 103 102 109 122 127 129 138 145 149 150 165 182 228 250 254 269 281 287 287 291 293 296
159 140 127 130 122 115 109 103 97 95 97 99 99 101 102 101 101 104 111 119 117 117 123 129 130 129 134 133 148 176 213 233 247 252 261 270 276 282 286 288 293 297 299
187 176 157 149 139 132 124 110 110 113 103 94 94 101 107 108 110 113 116 116 120 123 126 128 130 152 165 183 220 258 280 282 280 275 281 287 290 295 299 303 302 299 301
201 193 183 175 172 157 137 125 120 118 113 110 106 100 99 101 104 107 111 120 130 137 146 155 173 189 242 268 286 294 298 294 288 287 287 293 298 296 295 295 298 299 301
207 196 195 186 174 168 158 151 141 133 123 118 113 108 103 99 94 94 100 107 108 106 104 133 239 265 272 277 279 286 293 286 281 282 285 286 287 288 291 296 301 308 311
214 201 196 197 190 181 173 165 159 154 151 145 133 120 105 93 79 65 55 75 213 233 241 248 253 258 263 268 274 274 267 268 275 279 282 287 287 294 301 305 312 311 312
215 219 208 209 207 202 193 189 186 180 174 172 176 183 256 321 323 315 298 275 268 265 264 262 264 265 269 276 273 267 271 278 281 285 288 290 297 300 302 305 312 313 315
212 221 225 225 220 217 215 215 211 212 213 218 230 255 273 291 292 286 284 279 275 270 272 278 278 278 278 277 272 274 279 284 287 287 289 291 295 297 304 312 313 318 319
232 232 233 232 233 230 224 226 228 229 237 245 252 260 271 273 265 267 277 278 273 277 283 284 284 283 277 271 274 279 282 284 284 286 290 293 296 302 307 313 311 314 319
237 239 240 231 234 240 236 235 237 240 244 247 253 257 260 266 270 270 271 272 275 283 285 291 289 281 274 275 277 279 279 278 281 286 290 293 296 298 300 310 315 321 322
243 235 235 229 228 234 235 237 242 247 250 256 257 259 266 269 273 269 270 274 278 286 296 308 296 271 274 278 279 278 279 280 283 285 290 293 300 308 307 308 316 319 321
247 243 236 231 237 241 242 244 245 250 247 249 255 261 271 268 268 272 273 278 285 292 295 301 286 307 267 269 272 277 279 281 282 285 288 293 301 307 306 313 317 319 311
245 247 246 245 245 251 254 253 252 251 252 251 252 264 271 276 270 266 270 277 283 288 292 292 285 289 296 300 284 280 281 285 286 284 283 294 301 306 309 314 313 306 310
244 248 250 245 244 253 256 254 254 256 256 259 255 260 270 277 277 281 272 269 272 275 276 284 292 281 294 289 282 270 275 281 283 281 283 288 297 299 311 310 305 298 311
238 242 246 246 246 249 253 257 257 255 256 257 260 264 268 272 276 278 277 271 269 278 271 280 276 280 290 279 281 276 277 283 283 277 282 291 294 301 304 298 296 308 309
232 238 244 249 253 257 258 259 260 260 262 264 264 263 263 262 263 267 269 268 267 268 274 272 274 279 284 279 275 276 281 277 283 288 282 281 287 292 295 292 297 306 303
244 239 241 245 252 256 259 259 262 263 263 261 260 260 262 259 260 260 267 270 271 270 271 275 278 279 285 275 281 275 275 274 278 275 277 281 284 290 289 296 304 301 300
Height
5727 5724 5722 5720 5717 5713 5708 5705 5702 5700 5698 5698 5700 5701 5703 5705 5708 5712 5715 5718 5722 5727 5731 5736 5741 5746 5750 5754 5757 5762 5765 5769 5774 5778 5783 5787 5792 5795 5799 5803 5806 5808 5810
5728 5726 5724 5721 5719 5715 5712 5709 5706 5703 5702 5703 5704 5705 5707 5708 5709 5713 5717 5721 5725 5729 5734 5737 5741 5746 5750 5754 5759 5763 5764 5769 5774 5778 5783 5787 5790 5794 5798 5801 5803 5806 5808
5729 5728 5726 5723 5721 5719 5716 5712 5710 5709 5707 5707 5708 5710 5711 5712 5714 5716 5719 5723 5727 5730 5735 5739 5742 5746 5752 5756 5760 5762 5765 5770 5774 5779 5783 5787 5791 5794 5797 5800 5803 5805 5806
5731 5730 5728 5726 5723 5721 5719 5716 5715 5714 5713 5713 5712 5714 5715 5717 5718 5721 5723 5726 5729 5732 5735 5738 5743 5748 5752 5756 5761 5764 5767 5772 5776 5779 5783 5787 5790 5794 5797 5801 5803 5801 5804
5733 5732 5730 5728 5726 5725 5722 5719 5718 5719 5718 5718 5718 5718 5720 5722 5722 5723 5726 5728 5730 5733 5736 5739 5743 5746 5750 5754 5760 5764 5769 5773 5775 5780 5784 5786 5790 5794 5798 5801 5802 5804 5805
5735 5733 5732 5730 5729 5728 5726 5724 5724 5723 5723 5722 5723 5723 5725 5725 5725 5727 5728 5728 5728 5732 5736 5739 5743 5748 5752 5756 5761 5766 5770 5774 5777 5780 5784 5789 5792 5795 5797 5799 5801 5801 5802
5736 5735 5734 5733 5732 5732 5731 5730 5728 5728 5727 5727 5727 5727 5728 5729 5727 5729 5730 5730 5732 5735 5739 5743 5746 5751 5754 5759 5762 5767 5771 5775 5778 5783 5789 5791 5791 5793 5796 5795 5794 5794 5795
5738 5737 5736 5737 5737 5737 5737 5735 5733 5732 5732 5732 5732 5732 5733 5733 5733 5734 5735 5738 5740 5743 5746 5748 5752 5755 5759 5763 5768 5771 5774 5778 5783 5785 5787 5789 5790 5792 5791 5792 5791 5792 5791
5740 5740 5740 5741 5741 5740 5741 5740 5739 5738 5739 5738 5738 5739 5739 5739 5739 5740 5741 5743 5745 5747 5750 5753 5757 5760 5764 5767 5769 5773 5777 5780 5783 5785 5787 5788 5789 5790 5791 5790 5789 5789 5788
5741 5741 5742 5744 5744 5744 5744 5744 5743 5744 5743 5744 5744 5744 5745 5745 5746 5747 5748 5750 5752 5755 5757 5760 5762 5765 5768 5771 5773 5776 5778 5780 5782 5783 5785 5784 5785 5786 5787 5788 5786 5786 5782
5743 5743 5743 5746 5746 5747 5748 5748 5748 5748 5748 5749 5749 5750 5751 5751 5752 5752 5754 5756 5757 5759 5762 5764 5766 5769 5771 5773 5775 5777 5779 5781 5783 5782 5783 5783 5784 5784 5784 5782 5779 5778 5775
5745 5744 5745 5746 5748 5748 5749 5751 5752 5752 5752 5752 5753 5754 5755 5756 5757 5758 5758 5760 5761 5763 5764 5767 5768 5771 5773 5775 5776 5777 5779 5780 5779 5779 5779 5778 5778 5776 5775 5773 5772 5770 5768
5745 5746 5746 5747 5748 5750 5751 5751 5753 5754 5756 5756 5757 5757 5758 5759 5760 5762 5763 5764 5765 5766 5768 5769 5771 5771 5773 5773 5774 5775 5776 5776 5775 5775 5774 5773 5773 5773 5771 5769 5766 5762 5759
5744 5746 5747 5747 5748 5750 5752 5753 5754 5755 5757 5759 5760 5761 5762 5763 5763 5764 5765 5766 5767 5768 5769 5770 5771 5772 5772 5772 5772 5773 5773 5771 5771 5771 5771 5770 5769 5768 5765 5761 5758 5754 5749
5742 5745 5746 5748 5749 5750 5752 5754 5756 5756 5758 5759 5760 5762 5763 5764 5764 5765 5766 5767 5768 5768 5769 5769 5770 5770 5770 5770 5770 5770 5768 5768 5768 5767 5766 5765 5762 5759 5756 5752 5748 5744 5738
5740 5742 5745 5746 5748 5750 5751 5753 5755 5757 5758 5760 5761 5761 5763 5764 5764 5764 5764 5765 5765 5766 5766 5766 5766 5766 5767 5766 5766 5764 5763 5762 5760 5760 5759 5757 5754 5750 5748 5745 5740 5734 5728
5737 5739 5742 5743 5745 5747 5749 5751 5753 5755 5756 5758 5759 5760 5761 5761 5761 5761 5762 5762 5762 5762 5762 5762 5762 5762 5763 5762 5759 5758 5757 5756 5755 5753 5751 5749 5747 5743 5740 5735 5729 5724 5718
5733 5735 5737 5740 5741 5743 5745 5747 5750 5752 5753 5754 5755 5755 5755 5756 5757 5757 5758 5759 5758 5757 5757 5757 5758 5757 5756 5754 5753 5752 5751 5750 5748 5746 5744 5741 5738 5734 5731 5725 5720 5715 5708
5728 5730 5732 5734 5736 5738 5740 5742 5744 5746 5748 5749 5750 5750 5750 5750 5752 5752 5752 5753 5753 5752 5752 5752 5752 5751 5748 5747 5746 5745 5744 5742 5740 5738 5735 5732 5730 5725 5720 5715 5710 5703 5697
5722 5724 5726 5728 5731 5733 5735 5737 5739 5740 5742 5743 5744 5745 5745 5745 5745 5746 5746 5747 5747 5747 5745 5744 5741 5742 5741 5739 5737 5737 5735 5734 5732 5730 5727 5724 5720 5715 5710 5705 5699 5693 5685
5716 5718 5721 5722 5725 5728 5730 5731 5733 5735 5735 5736 5738 5739 5740 5739 5740 5740 5739 5740 5740 5739 5739 5737 5734 5733 5732 5730 5729 5727 5724 5723 5722 5720 5717 5714 5710 5705 5700 5695 5688 5683 5678
5709 5711 5713 5716 5718 5720 5722 5724 5726 5727 5728 5730 5730 5730 5730 5731 5732 5733 5733 5733 5732 5730 5730 5728 5725 5724 5724 5721 5718 5716 5715 5715 5712 5709 5706 5704 5699 5695 5689 5685 5679 5675 5668
5702 5704 5705 5708 5711 5712 5713 5716 5718 5720 5721 5722 5723 5722 5721 5721 5722 5722 5723 5723 5722 5720 5719 5718 5716 5714 5712 5710 5707 5706 5705 5704 5701 5697 5695 5693 5690 5685 5679 5674 5670 5664 5658
5694 5696 5698 5700 5702 5704 5706 5708 5709 5711 5712 5713 5713 5714 5714 5713 5711 5710 5711 5712 5710 5708 5705 5706 5705 5703 5702 5700 5699 5697 5695 5690 5687 5684 5684 5681 5678 5673 5669 5665 5660 5655 5649
5686 5689 5691 5694 5696 5697 5698 5699 5700 5702 5703 5704 5704 5704 5705 5705 5704 5702 5699 5698 5698 5697 5696 5696 5695 5693 5692 5690 5689 5687 5684 5681 5677 5675 5672 5671 5668 5663 5659 5655 5650 5644 5639
5675 5678 5681 5685 5687 5688 5689 5690 5689 5691 5692 5692 5692 5693 5694 5695 5694 5693 5692 5691 5689 5687 5686 5685 5683 5681 5679 5677 5675 5674 5670 5667 5663 5661 5663 5660 5656 5653 5650 5645 5640 5634 5629